• In Deutschland
  • Länderverzeichnis
  • Für 7 Tage
  • Wassertemperatur
  • Satellitenkarten
  • Wetterkarte
  • Widgets
  • user-avatar
    Anmelden

    Stündliche Wetter Eppingen

    Heute, 24 September, Montag

    Zeit Temperatur Niederschläge Wind Luftdruck Luftfeuchtigkeit
    00:00 +9°C° 0 mm 3 m/S 749 mmHg 87%
    01:00 +9°C° 0 mm 3 m/S 751 mmHg 88%
    02:00 +8°C° 0 mm 2 m/S 752 mmHg 89%
    03:00 +8°C° 0 mm 2 m/S 752 mmHg 90%
    04:00 +8°C° 0 mm 2 m/S 753 mmHg 91%
    05:00 +8°C° 0 mm 2 m/S 754 mmHg 91%
    06:00 +7°C° 0 mm 2 m/S 754 mmHg 91%
    07:00 +8°C° 0 mm 2 m/S 755 mmHg 90%
    08:00 +9°C° 0 mm 2 m/S 756 mmHg 81%
    09:00 +10°C° 0 mm 3 m/S 756 mmHg 72%
    10:00 +12°C° 0 mm 3 m/S 757 mmHg 63%
    11:00 +13°C° 0 mm 3 m/S 756 mmHg 56%
    12:00 +14°C° 0 mm 3 m/S 756 mmHg 50%
    13:00 +16°C° 0 mm 3 m/S 756 mmHg 43%
    14:00 +16°C° 0 mm 3 m/S 756 mmHg 43%
    15:00 +16°C° 0 mm 3 m/S 756 mmHg 43%
    16:00 +16°C° 0 mm 3 m/S 756 mmHg 43%
    17:00 +14°C° 0 mm 2 m/S 756 mmHg 49%
    18:00 +13°C° 0 mm 2 m/S 756 mmHg 54%
    19:00 +11°C° 0 mm 1 m/S 757 mmHg 60%
    20:00 +11°C° 0 mm 1 m/S 757 mmHg 62%
    21:00 +10°C° 0 mm 1 m/S 758 mmHg 65%
    22:00 +10°C° 0 mm 1 m/S 758 mmHg 67%
    23:00 +9°C° 0 mm 1 m/S 758 mmHg 70%

    Morgen, 25 September, Dienstag

    Zeit Temperatur Niederschläge Wind Luftdruck Luftfeuchtigkeit
    00:00 +9°C° 0 mm 1 m/S 759 mmHg 74%
    01:00 +8°C° 0 mm 1 m/S 759 mmHg 77%
    02:00 +8°C° 0 mm 1 m/S 759 mmHg 79%
    03:00 +7°C° 0 mm 1 m/S 759 mmHg 81%
    04:00 +7°C° 0 mm 1 m/S 759 mmHg 83%
    05:00 +7°C° 0 mm 1 m/S 759 mmHg 83%
    06:00 +7°C° 0 mm 1 m/S 759 mmHg 83%
    07:00 +6°C° 0 mm 2 m/S 759 mmHg 83%
    08:00 +8°C° 0 mm 2 m/S 759 mmHg 73%
    09:00 +10°C° 0 mm 3 m/S 759 mmHg 62%
    10:00 +12°C° 0 mm 3 m/S 759 mmHg 52%
    11:00 +13°C° 0 mm 3 m/S 759 mmHg 47%
    12:00 +14°C° 0 mm 3 m/S 759 mmHg 43%
    13:00 +15°C° 0 mm 4 m/S 759 mmHg 38%
    14:00 +15°C° 0 mm 4 m/S 758 mmHg 39%
    15:00 +15°C° 0 mm 4 m/S 758 mmHg 39%
    16:00 +15°C° 0 mm 4 m/S 758 mmHg 40%
    17:00 +13°C° 0 mm 3 m/S 758 mmHg 46%
    18:00 +11°C° 0 mm 3 m/S 758 mmHg 51%
    19:00 +10°C° 0 mm 2 m/S 758 mmHg 57%
    20:00 +9°C° 0 mm 2 m/S 758 mmHg 59%
    21:00 +8°C° 0 mm 2 m/S 758 mmHg 61%
    22:00 +8°C° 0 mm 2 m/S 759 mmHg 64%
    23:00 +7°C° 0 mm 2 m/S 758 mmHg 65%

    übermorgen, 26 September, Mittwoch

    Zeit Temperatur Niederschläge Wind Luftdruck Luftfeuchtigkeit
    00:00 +7°C° 0 mm 2 m/S 758 mmHg 66%
    01:00 +6°C° 0 mm 2 m/S 758 mmHg 67%
    02:00 +6°C° 0 mm 2 m/S 758 mmHg 68%
    03:00 +5°C° 0 mm 2 m/S 758 mmHg 68%
    04:00 +5°C° 0 mm 2 m/S 758 mmHg 69%
    05:00 +5°C° 0 mm 2 m/S 758 mmHg 70%
    06:00 +5°C° 0 mm 2 m/S 758 mmHg 70%
    07:00 +5°C° 0 mm 2 m/S 758 mmHg 71%
    08:00 +7°C° 0 mm 2 m/S 758 mmHg 63%
    09:00 +10°C° 0 mm 2 m/S 758 mmHg 55%
    10:00 +13°C° 0 mm 2 m/S 758 mmHg 47%
    11:00 +15°C° 0 mm 1 m/S 757 mmHg 42%
    12:00 +18°C° 0 mm 1 m/S 757 mmHg 38%
    13:00 +20°C° 0 mm 1 m/S 757 mmHg 34%
    14:00 +20°C° 0 mm 1 m/S 757 mmHg 34%
    15:00 +21°C° 0 mm 1 m/S 756 mmHg 34%
    16:00 +19°C° 0 mm 0 m/S 756 mmHg 34%
    17:00 +17°C° 0 mm 0 m/S 756 mmHg 40%
    18:00 +14°C° 0 mm 0 m/S 756 mmHg 45%
    19:00 +12°C° 0 mm 0 m/S 756 mmHg 51%
    20:00 +11°C° 0 mm 0 m/S 756 mmHg 53%
    21:00 +11°C° 0 mm 0 m/S 756 mmHg 55%
    22:00 +11°C° 0 mm 1 m/S 757 mmHg 57%
    23:00 +11°C° 0 mm 1 m/S 757 mmHg 60%

    27 September, Donnerstag

    Zeit Temperatur Niederschläge Wind Luftdruck Luftfeuchtigkeit
    00:00 +11°C° 0 mm 1 m/S 756 mmHg 62%
    01:00 +11°C° 0 mm 1 m/S 756 mmHg 65%
    02:00 +10°C° 0 mm 1 m/S 756 mmHg 66%
    03:00 +9°C° 0 mm 0 m/S 756 mmHg 68%
    04:00 +9°C° 0 mm 0 m/S 756 mmHg 70%
    05:00 +9°C° 0 mm 0 m/S 756 mmHg 70%
    06:00 +9°C° 0 mm 0 m/S 756 mmHg 70%
    07:00 +9°C° 0 mm 0 m/S 756 mmHg 70%
    08:00 +12°C° 0 mm 0 m/S 756 mmHg 62%
    09:00 +15°C° 0 mm 0 m/S 755 mmHg 54%
    10:00 +17°C° 0 mm 0 m/S 755 mmHg 46%
    11:00 +19°C° 0 mm 0 m/S 755 mmHg 42%
    12:00 +21°C° 0 mm 0 m/S 755 mmHg 39%
    13:00 +22°C° 0 mm 0 m/S 754 mmHg 35%
    14:00 +22°C° 0 mm 0 m/S 754 mmHg 35%
    15:00 +22°C° 0 mm 0 m/S 753 mmHg 36%
    16:00 +22°C° 0 mm 0 m/S 752 mmHg 37%
    17:00 +19°C° 0 mm 0 m/S 752 mmHg 43%
    18:00 +17°C° 0 mm 0 m/S 752 mmHg 49%
    19:00 +15°C° 0 mm 0 m/S 752 mmHg 55%
    20:00 +14°C° 0 mm 0 m/S 752 mmHg 57%
    21:00 +14°C° 0 mm 0 m/S 752 mmHg 59%
    22:00 +14°C° 0 mm 1 m/S 751 mmHg 60%
    23:00 +14°C° 0 mm 1 m/S 751 mmHg 62%

    28 September, Freitag

    Zeit Temperatur Niederschläge Wind Luftdruck Luftfeuchtigkeit
    00:00 +13°C° 0 mm 1 m/S 751 mmHg 64%
    01:00 +13°C° 0 mm 1 m/S 750 mmHg 66%
    02:00 +13°C° 0 mm 1 m/S 750 mmHg 68%
    03:00 +12°C° 0 mm 1 m/S 750 mmHg 70%
    04:00 +12°C° 0 mm 1 m/S 749 mmHg 71%
    05:00 +12°C° 0 mm 1 m/S 749 mmHg 72%
    06:00 +11°C° 0 mm 0 m/S 749 mmHg 73%
    07:00 +11°C° 0 mm 0 m/S 749 mmHg 74%
    08:00 +14°C° 0 mm 0 m/S 749 mmHg 67%
    09:00 +16°C° 0 mm 0 m/S 749 mmHg 60%
    10:00 +19°C° 0 mm 0 m/S 749 mmHg 52%
    11:00 +22°C° 0 mm 1 m/S 749 mmHg 49%
    12:00 +23°C° 0 mm 1 m/S 748 mmHg 46%
    13:00 +24°C° 0 mm 1 m/S 748 mmHg 43%
    14:00 +24°C° 0 mm 1 m/S 748 mmHg 43%
    15:00 +24°C° 0 mm 1 m/S 747 mmHg 43%
    16:00 +24°C° 0 mm 1 m/S 747 mmHg 43%
    17:00 +22°C° 0 mm 1 m/S 747 mmHg 49%
    18:00 +19°C° 0 mm 1 m/S 747 mmHg 55%
    19:00 +16°C° 0 mm 1 m/S 747 mmHg 61%
    20:00 +15°C° 0 mm 1 m/S 747 mmHg 63%
    21:00 +15°C° 0 mm 1 m/S 748 mmHg 65%
    22:00 +14°C° 0 mm 1 m/S 748 mmHg 67%
    23:00 +13°C° 0 mm 1 m/S 748 mmHg 70%

    29 September, Samstag

    Zeit Temperatur Niederschläge Wind Luftdruck Luftfeuchtigkeit
    00:00 +13°C° 0 mm 1 m/S 748 mmHg 73%
    01:00 +12°C° 0 mm 1 m/S 748 mmHg 76%
    02:00 +12°C° 0 mm 1 m/S 748 mmHg 79%
    03:00 +10°C° 0 mm 2 m/S 748 mmHg 83%
    04:00 +10°C° 0 mm 2 m/S 748 mmHg 86%
    05:00 +10°C° 0 mm 2 m/S 749 mmHg 88%
    06:00 +10°C° 0 mm 2 m/S 749 mmHg 89%
    07:00 +10°C° 0 mm 2 m/S 749 mmHg 91%
    08:00 +11°C° 0 mm 3 m/S 749 mmHg 83%
    09:00 +13°C° 0 mm 3 m/S 749 mmHg 75%
    10:00 +15°C° 0 mm 4 m/S 749 mmHg 67%
    11:00 +17°C° 0 mm 4 m/S 749 mmHg 63%
    12:00 +18°C° 0 mm 4 m/S 749 mmHg 58%
    13:00 +19°C° 0 mm 4 m/S 749 mmHg 54%
    14:00 +19°C° 0 mm 4 m/S 749 mmHg 54%
    15:00 +20°C° 0 mm 4 m/S 748 mmHg 54%
    16:00 +20°C° 0 mm 4 m/S 748 mmHg 54%
    17:00 +18°C° 0 mm 4 m/S 748 mmHg 59%
    18:00 +16°C° 0 mm 3 m/S 748 mmHg 64%
    19:00 +14°C° 0 mm 3 m/S 748 mmHg 70%
    20:00 +13°C° 0 mm 3 m/S 748 mmHg 72%
    21:00 +12°C° 0 mm 3 m/S 748 mmHg 75%
    22:00 +12°C° 0 mm 3 m/S 749 mmHg 77%
    23:00 +12°C° 0 mm 2 m/S 748 mmHg 80%
    Mehr zeigen